Time,TemperatureF,DewpointF,PressureIn,WindDirection,WindDirectionDegrees,WindSpeedMPH,WindSpeedGustMPH,Humidity,HourlyPrecipIn,Conditions,Clouds,dailyrainin,SoftwareType,DateUTC
2013-02-28 00:00:00,31.9,26.4,30.26,WNW,288,2.0,3.0,80,0.00,,---,0.00,VWS V13.00,2013-02-28 08:00:00,
2013-02-28 00:05:00,31.7,26.5,30.26,WNW,288,1.0,3.0,81,0.00,,---,0.00,VWS V13.00,2013-02-28 08:05:00,
2013-02-28 00:10:00,31.6,26.8,30.27,WNW,289,1.0,3.0,82,0.00,,---,0.00,VWS V13.00,2013-02-28 08:10:00,
2013-02-28 00:15:00,31.6,26.8,30.27,WNW,289,2.0,3.0,82,0.00,,---,0.00,VWS V13.00,2013-02-28 08:15:00,
2013-02-28 00:20:00,31.5,26.6,30.27,WNW,288,2.0,3.0,82,0.00,,---,0.00,VWS V13.00,2013-02-28 08:20:00,
2013-02-28 00:25:00,31.5,26.9,30.27,WNW,289,1.0,3.0,83,0.00,,---,0.00,VWS V13.00,2013-02-28 08:25:00,
2013-02-28 00:30:00,31.4,26.8,30.27,WNW,289,1.0,2.0,83,0.00,,---,0.00,VWS V13.00,2013-02-28 08:30:00,
2013-02-28 00:35:00,31.4,26.8,30.28,WNW,289,2.0,2.0,83,0.00,,---,0.00,VWS V13.00,2013-02-28 08:35:00,
2013-02-28 00:40:00,31.5,26.9,30.28,WNW,289,1.0,3.0,83,0.00,,---,0.00,VWS V13.00,2013-02-28 08:40:00,
2013-02-28 00:45:00,31.5,26.9,30.28,WNW,289,2.0,3.0,83,0.00,,---,0.00,VWS V13.00,2013-02-28 08:45:00,
2013-02-28 00:50:00,31.5,27.2,30.28,WNW,288,0.0,3.0,84,0.00,,---,0.00,VWS V13.00,2013-02-28 08:50:00,
2013-02-28 00:55:00,31.5,27.2,30.28,WNW,289,1.0,3.0,84,0.00,,---,0.00,VWS V13.00,2013-02-28 08:55:00,
2013-02-28 01:00:00,31.6,27.3,30.28,WNW,289,0.0,0.0,84,0.00,,---,0.00,VWS V13.00,2013-02-28 09:00:00,
2013-02-28 01:05:00,31.6,27.3,30.28,WNW,289,0.0,0.0,84,0.00,,---,0.00,VWS V13.00,2013-02-28 09:05:00,
2013-02-28 01:10:00,31.6,27.3,30.27,WNW,289,0.0,0.0,84,0.00,,---,0.00,VWS V13.00,2013-02-28 09:10:00,
2013-02-28 01:15:00,31.6,27.3,30.27,WNW,288,0.0,0.0,84,0.00,,---,0.00,VWS V13.00,2013-02-28 09:15:00,
2013-02-28 01:20:00,31.7,27.4,30.27,WNW,289,0.0,0.0,84,0.00,,---,0.00,VWS V13.00,2013-02-28 09:20:00,
2013-02-28 01:25:00,31.7,27.4,30.27,WNW,289,0.0,0.0,84,0.00,,---,0.00,VWS V13.00,2013-02-28 09:25:00,
2013-02-28 01:30:00,31.7,27.1,30.27,WNW,288,0.0,0.0,83,0.00,,---,0.00,VWS V13.00,2013-02-28 09:30:00,
2013-02-28 01:35:00,31.7,27.1,30.27,WNW,288,0.0,1.0,83,0.00,,---,0.00,VWS V13.00,2013-02-28 09:35:00,
2013-02-28 01:40:00,31.6,27.0,30.27,WNW,289,0.0,1.0,83,0.00,,---,0.00,VWS V13.00,2013-02-28 09:40:00,
2013-02-28 01:45:00,31.6,27.0,30.27,WNW,289,0.0,1.0,83,0.00,,---,0.00,VWS V13.00,2013-02-28 09:45:00,
2013-02-28 01:50:00,31.6,27.0,30.27,WNW,289,0.0,1.0,83,0.00,,---,0.00,VWS V13.00,2013-02-28 09:50:00,
2013-02-28 01:55:00,31.6,27.0,30.27,WNW,288,2.0,2.0,83,0.00,,---,0.00,VWS V13.00,2013-02-28 09:55:00,
2013-02-28 02:00:00,31.6,27.3,30.27,WNW,288,0.0,0.0,84,0.00,,---,0.00,VWS V13.00,2013-02-28 10:00:00,
2013-02-28 02:05:00,31.6,27.3,30.27,WNW,289,0.0,0.0,84,0.00,,---,0.00,VWS V13.00,2013-02-28 10:05:00,
2013-02-28 02:10:00,31.6,27.3,30.26,WNW,288,0.0,0.0,84,0.00,,---,0.00,VWS V13.00,2013-02-28 10:10:00,
2013-02-28 02:15:00,31.6,27.3,30.26,WNW,288,0.0,0.0,84,0.00,,---,0.00,VWS V13.00,2013-02-28 10:15:00,
2013-02-28 02:20:00,31.6,27.3,30.26,WNW,289,0.0,0.0,84,0.00,,---,0.00,VWS V13.00,2013-02-28 10:20:00,
2013-02-28 02:25:00,31.6,27.3,30.26,WNW,289,0.0,0.0,84,0.00,,---,0.00,VWS V13.00,2013-02-28 10:25:00,
2013-02-28 02:30:00,31.6,27.3,30.26,WNW,288,0.0,0.0,84,0.00,,---,0.00,VWS V13.00,2013-02-28 10:30:00,
2013-02-28 02:35:00,31.5,27.2,30.26,WNW,289,0.0,0.0,84,0.00,,---,0.00,VWS V13.00,2013-02-28 10:35:00,
2013-02-28 02:40:00,31.5,27.2,30.27,WNW,289,0.0,1.0,84,0.00,,---,0.00,VWS V13.00,2013-02-28 10:40:00,
2013-02-28 02:45:00,31.5,27.2,30.27,WNW,289,0.0,1.0,84,0.00,,---,0.00,VWS V13.00,2013-02-28 10:45:00,
2013-02-28 02:50:00,31.5,27.2,30.27,WNW,289,0.0,1.0,84,0.00,,---,0.00,VWS V13.00,2013-02-28 10:50:00,
2013-02-28 02:55:00,31.5,27.2,30.27,WNW,289,0.0,1.0,84,0.00,,---,0.00,VWS V13.00,2013-02-28 10:55:00,
2013-02-28 03:00:00,31.5,27.5,30.27,WNW,289,0.0,0.0,85,0.00,,---,0.00,VWS V13.00,2013-02-28 11:00:00,
2013-02-28 03:05:00,31.5,27.5,30.27,WNW,289,0.0,0.0,85,0.00,,---,0.00,VWS V13.00,2013-02-28 11:05:00,
2013-02-28 03:10:00,31.6,27.6,30.27,WNW,289,1.0,1.0,85,0.00,,---,0.00,VWS V13.00,2013-02-28 11:10:00,
2013-02-28 03:15:00,31.6,27.6,30.27,WNW,288,0.0,1.0,85,0.00,,---,0.00,VWS V13.00,2013-02-28 11:15:00,
2013-02-28 03:20:00,31.6,27.6,30.28,WNW,289,1.0,1.0,85,0.00,,---,0.00,VWS V13.00,2013-02-28 11:20:00,
2013-02-28 03:25:00,31.7,27.7,30.28,WNW,289,0.0,2.0,85,0.00,,---,0.00,VWS V13.00,2013-02-28 11:25:00,
2013-02-28 03:30:00,31.7,27.7,30.28,WNW,289,0.0,0.0,85,0.00,,---,0.00,VWS V13.00,2013-02-28 11:30:00,
2013-02-28 03:35:00,31.7,27.7,30.28,WNW,289,0.0,0.0,85,0.00,,---,0.00,VWS V13.00,2013-02-28 11:35:00,
2013-02-28 03:40:00,31.7,27.7,30.28,WNW,288,0.0,0.0,85,0.00,,---,0.00,VWS V13.00,2013-02-28 11:40:00,
2013-02-28 03:45:00,31.7,27.7,30.28,WNW,288,0.0,1.0,85,0.00,,---,0.00,VWS V13.00,2013-02-28 11:45:00,
2013-02-28 03:50:00,31.7,27.7,30.28,WNW,289,0.0,2.0,85,0.00,,---,0.00,VWS V13.00,2013-02-28 11:50:00,
2013-02-28 03:55:00,31.8,27.8,30.29,WNW,289,1.0,2.0,85,0.00,,---,0.00,VWS V13.00,2013-02-28 11:55:00,
2013-02-28 04:00:00,31.8,27.8,30.29,WNW,288,0.0,0.0,85,0.00,,---,0.00,VWS V13.00,2013-02-28 12:00:00,
2013-02-28 04:05:00,31.8,27.8,30.29,WNW,289,0.0,0.0,85,0.00,,---,0.00,VWS V13.00,2013-02-28 12:05:00,
2013-02-28 04:10:00,31.8,27.8,30.29,WNW,289,0.0,0.0,85,0.00,,---,0.00,VWS V13.00,2013-02-28 12:10:00,
2013-02-28 04:15:00,31.9,27.9,30.29,WNW,288,0.0,0.0,85,0.00,,---,0.00,VWS V13.00,2013-02-28 12:15:00,
2013-02-28 04:20:00,31.9,27.9,30.29,WNW,288,0.0,0.0,85,0.00,,---,0.00,VWS V13.00,2013-02-28 12:20:00,
2013-02-28 04:25:00,31.9,27.9,30.29,WNW,289,0.0,0.0,85,0.00,,---,0.00,VWS V13.00,2013-02-28 12:25:00,
2013-02-28 04:30:00,31.9,27.9,30.29,WNW,288,0.0,0.0,85,0.00,,---,0.00,VWS V13.00,2013-02-28 12:30:00,
2013-02-28 04:35:00,31.9,27.6,30.29,WNW,289,1.0,2.0,84,0.00,,---,0.00,VWS V13.00,2013-02-28 12:35:00,
2013-02-28 04:40:00,31.9,27.6,30.29,WNW,288,0.0,2.0,84,0.00,,---,0.00,VWS V13.00,2013-02-28 12:40:00,
2013-02-28 04:45:00,31.9,27.6,30.30,WNW,289,0.0,2.0,84,0.00,,---,0.00,VWS V13.00,2013-02-28 12:45:00,
2013-02-28 04:50:00,31.9,27.6,30.30,WNW,288,0.0,2.0,84,0.00,,---,0.00,VWS V13.00,2013-02-28 12:50:00,
2013-02-28 04:55:00,32.0,28.0,30.30,WNW,289,0.0,2.0,85,0.00,,---,0.00,VWS V13.00,2013-02-28 12:55:00,
2013-02-28 05:00:00,32.0,28.0,30.30,WNW,289,0.0,0.0,85,0.00,,---,0.00,VWS V13.00,2013-02-28 13:00:00,
2013-02-28 05:05:00,32.0,28.0,30.30,WNW,289,0.0,0.0,85,0.00,,---,0.00,VWS V13.00,2013-02-28 13:05:00,
2013-02-28 05:10:00,32.0,28.0,30.30,WNW,288,0.0,2.0,85,0.00,,---,0.00,VWS V13.00,2013-02-28 13:10:00,
2013-02-28 05:15:00,32.1,28.1,30.30,WNW,289,0.0,2.0,85,0.00,,---,0.00,VWS V13.00,2013-02-28 13:15:00,
2013-02-28 05:20:00,32.1,28.4,30.30,WNW,289,0.0,2.0,86,0.00,,---,0.00,VWS V13.00,2013-02-28 13:20:00,
2013-02-28 05:25:00,32.1,28.1,30.30,WNW,288,0.0,2.0,85,0.00,,---,0.00,VWS V13.00,2013-02-28 13:25:00,
2013-02-28 05:30:00,32.1,28.1,30.30,WNW,288,0.0,0.0,85,0.00,,---,0.00,VWS V13.00,2013-02-28 13:30:00,
2013-02-28 05:35:00,32.1,28.1,30.30,WNW,289,0.0,0.0,85,0.00,,---,0.00,VWS V13.00,2013-02-28 13:35:00,
2013-02-28 05:40:00,32.1,28.4,30.30,WNW,289,0.0,1.0,86,0.00,,---,0.00,VWS V13.00,2013-02-28 13:40:00,
2013-02-28 05:45:00,32.1,28.4,30.30,WNW,289,0.0,1.0,86,0.00,,---,0.00,VWS V13.00,2013-02-28 13:45:00,
2013-02-28 05:50:00,32.1,28.4,30.30,WNW,288,0.0,1.0,86,0.00,,---,0.00,VWS V13.00,2013-02-28 13:50:00,
2013-02-28 05:55:00,32.1,28.4,30.31,WNW,289,0.0,1.0,86,0.00,,---,0.00,VWS V13.00,2013-02-28 13:55:00,
2013-02-28 06:00:00,32.1,28.7,30.32,WNW,289,1.0,2.0,87,0.00,,---,0.00,VWS V13.00,2013-02-28 14:00:00,
2013-02-28 06:05:00,32.1,28.7,30.33,WNW,288,1.0,2.0,87,0.00,,---,0.00,VWS V13.00,2013-02-28 14:05:00,
2013-02-28 06:10:00,32.2,28.8,30.32,WNW,288,0.0,2.0,87,0.00,,---,0.00,VWS V13.00,2013-02-28 14:10:00,
2013-02-28 06:15:00,32.2,29.0,30.32,WNW,289,2.0,2.0,88,0.00,,---,0.00,VWS V13.00,2013-02-28 14:15:00,
2013-02-28 06:20:00,32.3,29.1,30.33,WNW,289,2.0,2.0,88,0.00,,---,0.00,VWS V13.00,2013-02-28 14:20:00,
2013-02-28 06:25:00,32.3,29.1,30.33,WNW,289,1.0,2.0,88,0.00,,---,0.00,VWS V13.00,2013-02-28 14:25:00,
2013-02-28 06:30:00,32.4,29.5,30.33,WNW,288,1.0,2.0,89,0.00,,---,0.00,VWS V13.00,2013-02-28 14:30:00,
2013-02-28 06:35:00,32.4,29.5,30.33,WNW,289,1.0,3.0,89,0.00,,---,0.00,VWS V13.00,2013-02-28 14:35:00,
2013-02-28 06:40:00,32.4,29.5,30.33,WNW,289,0.0,3.0,89,0.00,,---,0.00,VWS V13.00,2013-02-28 14:40:00,
2013-02-28 06:45:00,32.5,29.6,30.33,WNW,289,0.0,3.0,89,0.00,,---,0.00,VWS V13.00,2013-02-28 14:45:00,
2013-02-28 06:50:00,32.5,29.6,30.33,WNW,288,0.0,3.0,89,0.00,,---,0.00,VWS V13.00,2013-02-28 14:50:00,
2013-02-28 06:55:00,32.5,29.9,30.33,WNW,289,0.0,3.0,90,0.00,,---,0.00,VWS V13.00,2013-02-28 14:55:00,
2013-02-28 07:00:00,32.5,29.9,30.34,WNW,288,1.0,2.0,90,0.00,,---,0.00,VWS V13.00,2013-02-28 15:00:00,
2013-02-28 07:05:00,32.6,30.0,30.34,WNW,289,1.0,2.0,90,0.00,,---,0.00,VWS V13.00,2013-02-28 15:05:00,
2013-02-28 07:10:00,32.6,30.0,30.34,WNW,289,0.0,2.0,90,0.00,,---,0.00,VWS V13.00,2013-02-28 15:10:00,
2013-02-28 07:15:00,32.6,30.0,30.34,WNW,289,2.0,3.0,90,0.00,,---,0.00,VWS V13.00,2013-02-28 15:15:00,
2013-02-28 07:20:00,32.7,30.1,30.35,WNW,300,2.0,4.0,90,0.00,,---,0.00,VWS V13.00,2013-02-28 15:20:00,
2013-02-28 07:25:00,32.7,30.4,30.35,WNW,300,1.0,4.0,91,0.00,,---,0.00,VWS V13.00,2013-02-28 15:25:00,
2013-02-28 07:30:00,32.7,30.4,30.35,WNW,300,1.0,3.0,91,0.01,,---,0.01,VWS V13.00,2013-02-28 15:30:00,
2013-02-28 07:35:00,32.7,30.4,30.35,WNW,300,2.0,3.0,91,0.01,,---,0.01,VWS V13.00,2013-02-28 15:35:00,
2013-02-28 07:40:00,32.8,30.5,30.35,WNW,300,0.0,3.0,91,0.01,,---,0.01,VWS V13.00,2013-02-28 15:40:00,
2013-02-28 07:45:00,32.8,30.5,30.35,WNW,300,1.0,3.0,91,0.01,,---,0.01,VWS V13.00,2013-02-28 15:45:00,
2013-02-28 07:50:00,32.8,30.5,30.35,WNW,300,1.0,3.0,91,0.01,,---,0.01,VWS V13.00,2013-02-28 15:50:00,
2013-02-28 07:55:00,32.8,30.5,30.35,WNW,300,2.0,3.0,91,0.01,,---,0.01,VWS V13.00,2013-02-28 15:55:00,
2013-02-28 08:00:00,32.8,30.5,30.35,WNW,300,1.0,2.0,91,0.01,,---,0.01,VWS V13.00,2013-02-28 16:00:00,
2013-02-28 08:05:00,32.8,30.5,30.35,WNW,300,1.0,3.0,91,0.01,,---,0.01,VWS V13.00,2013-02-28 16:05:00,
2013-02-28 08:10:00,32.8,30.5,30.35,WNW,300,0.0,3.0,91,0.01,,---,0.01,VWS V13.00,2013-02-28 16:10:00,
2013-02-28 08:15:00,32.9,30.6,30.35,WNW,300,0.0,3.0,91,0.01,,---,0.01,VWS V13.00,2013-02-28 16:15:00,
2013-02-28 08:20:00,32.9,30.6,30.36,WNW,300,0.0,3.0,91,0.01,,---,0.01,VWS V13.00,2013-02-28 16:20:00,
2013-02-28 08:25:00,33.0,30.7,30.36,WNW,300,1.0,3.0,91,0.01,,---,0.01,VWS V13.00,2013-02-28 16:25:00,
2013-02-28 08:30:00,33.1,30.8,30.36,WNW,300,1.0,3.0,91,0.00,,---,0.01,VWS V13.00,2013-02-28 16:30:00,
2013-02-28 08:35:00,33.2,30.9,30.36,WNW,300,1.0,3.0,91,0.00,,---,0.01,VWS V13.00,2013-02-28 16:35:00,
2013-02-28 08:40:00,33.3,31.0,30.36,WNW,300,1.0,3.0,91,0.00,,---,0.01,VWS V13.00,2013-02-28 16:40:00,
2013-02-28 08:45:00,33.4,31.1,30.36,WNW,300,2.0,3.0,91,0.00,,---,0.01,VWS V13.00,2013-02-28 16:45:00,
2013-02-28 08:50:00,33.4,31.1,30.36,WNW,300,1.0,4.0,91,0.00,,---,0.01,VWS V13.00,2013-02-28 16:50:00,
2013-02-28 08:55:00,33.4,31.1,30.36,WNW,300,0.0,4.0,91,0.00,,---,0.01,VWS V13.00,2013-02-28 16:55:00,
2013-02-28 09:00:00,33.4,31.1,30.36,WNW,300,1.0,1.0,91,0.00,,---,0.01,VWS V13.00,2013-02-28 17:00:00,
2013-02-28 09:05:00,33.5,31.2,30.36,WNW,300,2.0,2.0,91,0.00,,---,0.01,VWS V13.00,2013-02-28 17:05:00,
2013-02-28 09:10:00,33.6,31.3,30.36,WNW,300,1.0,3.0,91,0.00,,---,0.01,VWS V13.00,2013-02-28 17:10:00,
2013-02-28 09:15:00,33.7,31.4,30.36,WNW,300,0.0,3.0,91,0.00,,---,0.01,VWS V13.00,2013-02-28 17:15:00,
2013-02-28 09:20:00,33.8,31.5,30.36,WNW,300,0.0,3.0,91,0.00,,---,0.01,VWS V13.00,2013-02-28 17:20:00,
2013-02-28 09:25:00,33.9,31.6,30.36,WNW,300,1.0,3.0,91,0.00,,---,0.01,VWS V13.00,2013-02-28 17:25:00,
2013-02-28 09:30:00,33.9,31.6,30.36,WNW,300,1.0,1.0,91,0.00,,---,0.01,VWS V13.00,2013-02-28 17:30:00,
2013-02-28 09:35:00,34.1,31.8,30.36,WNW,300,1.0,3.0,91,0.00,,---,0.01,VWS V13.00,2013-02-28 17:35:00,
2013-02-28 09:40:00,34.3,32.0,30.36,WNW,300,0.0,3.0,91,0.00,,---,0.01,VWS V13.00,2013-02-28 17:40:00,
2013-02-28 09:45:00,34.4,32.0,30.36,WNW,300,2.0,3.0,91,0.00,,---,0.01,VWS V13.00,2013-02-28 17:45:00,
2013-02-28 09:50:00,34.5,32.2,30.37,WNW,300,1.0,3.0,91,0.00,,---,0.01,VWS V13.00,2013-02-28 17:50:00,
2013-02-28 09:55:00,34.8,32.5,30.37,WNW,300,2.0,3.0,91,0.00,,---,0.01,VWS V13.00,2013-02-28 17:55:00,
2013-02-28 10:00:00,35.0,32.6,30.38,WNW,300,1.0,3.0,91,0.00,,---,0.01,VWS V13.00,2013-02-28 18:00:00,
2013-02-28 10:05:00,35.2,32.8,30.38,WNW,300,1.0,3.0,91,0.00,,---,0.01,VWS V13.00,2013-02-28 18:05:00,
2013-02-28 10:10:00,35.4,33.0,30.38,WNW,300,1.0,3.0,91,0.00,,---,0.01,VWS V13.00,2013-02-28 18:10:00,
2013-02-28 10:15:00,35.6,33.2,30.38,WNW,300,0.0,3.0,91,0.00,,---,0.01,VWS V13.00,2013-02-28 18:15:00,
2013-02-28 10:20:00,35.7,33.3,30.38,WNW,300,1.0,3.0,91,0.00,,---,0.01,VWS V13.00,2013-02-28 18:20:00,
2013-02-28 10:25:00,35.9,33.5,30.38,WNW,300,0.0,3.0,91,0.00,,---,0.01,VWS V13.00,2013-02-28 18:25:00,
2013-02-28 10:30:00,36.1,33.7,30.38,WNW,300,1.0,2.0,91,0.00,,---,0.01,VWS V13.00,2013-02-28 18:30:00,
2013-02-28 10:35:00,36.2,33.8,30.37,WNW,300,1.0,2.0,91,0.00,,---,0.01,VWS V13.00,2013-02-28 18:35:00,
2013-02-28 10:40:00,36.4,34.0,30.37,WNW,300,2.0,3.0,91,0.00,,---,0.01,VWS V13.00,2013-02-28 18:40:00,
2013-02-28 10:45:00,36.4,34.0,30.37,WNW,300,0.0,3.0,91,0.00,,---,0.01,VWS V13.00,2013-02-28 18:45:00,
2013-02-28 10:50:00,36.4,34.0,30.36,WNW,300,1.0,3.0,91,0.00,,---,0.01,VWS V13.00,2013-02-28 18:50:00,
2013-02-28 10:55:00,36.4,34.0,30.36,WNW,300,1.0,3.0,91,0.00,,---,0.01,VWS V13.00,2013-02-28 18:55:00,
2013-02-28 11:00:00,36.4,34.0,30.36,WNW,300,0.0,0.0,91,0.00,,---,0.01,VWS V13.00,2013-02-28 19:00:00,
2013-02-28 11:05:00,36.4,34.0,30.36,WNW,300,0.0,0.0,91,0.01,,---,0.02,VWS V13.00,2013-02-28 19:05:00,
2013-02-28 11:10:00,36.5,34.1,30.36,WNW,300,0.0,0.0,91,0.01,,---,0.02,VWS V13.00,2013-02-28 19:10:00,
2013-02-28 11:15:00,36.8,34.4,30.36,WNW,300,0.0,0.0,91,0.01,,---,0.02,VWS V13.00,2013-02-28 19:15:00,
2013-02-28 11:20:00,37.0,34.6,30.36,WNW,300,0.0,1.0,91,0.01,,---,0.02,VWS V13.00,2013-02-28 19:20:00,
2013-02-28 11:25:00,37.2,34.8,30.36,WNW,300,0.0,1.0,91,0.01,,---,0.02,VWS V13.00,2013-02-28 19:25:00,
2013-02-28 11:30:00,37.3,34.9,30.36,WNW,300,0.0,0.0,91,0.01,,---,0.02,VWS V13.00,2013-02-28 19:30:00,
2013-02-28 11:35:00,37.4,35.0,30.36,WNW,300,1.0,1.0,91,0.01,,---,0.02,VWS V13.00,2013-02-28 19:35:00,
2013-02-28 11:40:00,37.6,35.2,30.36,WNW,300,1.0,2.0,91,0.01,,---,0.02,VWS V13.00,2013-02-28 19:40:00,
2013-02-28 11:45:00,37.7,35.3,30.36,WNW,300,0.0,2.0,91,0.01,,---,0.02,VWS V13.00,2013-02-28 19:45:00,
2013-02-28 11:50:00,37.9,35.5,30.36,WNW,300,1.0,2.0,91,0.01,,---,0.02,VWS V13.00,2013-02-28 19:50:00,
2013-02-28 11:55:00,38.0,35.9,30.36,WNW,300,0.0,2.0,92,0.01,,---,0.02,VWS V13.00,2013-02-28 19:55:00,
2013-02-28 12:00:00,38.2,35.8,30.35,WNW,300,0.0,0.0,91,0.01,,---,0.02,VWS V13.00,2013-02-28 20:00:00,
2013-02-28 12:05:00,38.4,36.0,30.35,WNW,300,0.0,0.0,91,0.01,,---,0.02,VWS V13.00,2013-02-28 20:05:00,
2013-02-28 12:10:00,38.7,36.6,30.35,WNW,300,0.0,0.0,92,0.01,,---,0.02,VWS V13.00,2013-02-28 20:10:00,
2013-02-28 12:15:00,39.0,36.6,30.35,WNW,300,0.0,0.0,91,0.01,,---,0.02,VWS V13.00,2013-02-28 20:15:00,
2013-02-28 12:20:00,39.3,36.9,30.34,WNW,300,0.0,0.0,91,0.01,,---,0.02,VWS V13.00,2013-02-28 20:20:00,
2013-02-28 12:25:00,39.5,37.1,30.34,WNW,300,0.0,0.0,91,0.01,,---,0.02,VWS V13.00,2013-02-28 20:25:00,
2013-02-28 12:30:00,39.7,37.0,30.34,WNW,300,0.0,0.0,90,0.00,,---,0.02,VWS V13.00,2013-02-28 20:30:00,
2013-02-28 12:35:00,40.1,37.4,30.34,WNW,300,0.0,0.0,90,0.00,,---,0.02,VWS V13.00,2013-02-28 20:35:00,
2013-02-28 12:40:00,40.4,37.7,30.33,WNW,300,0.0,1.0,90,0.00,,---,0.02,VWS V13.00,2013-02-28 20:40:00,
2013-02-28 12:45:00,40.6,37.6,30.33,WNW,300,0.0,3.0,89,0.00,,---,0.02,VWS V13.00,2013-02-28 20:45:00,
2013-02-28 12:50:00,41.0,38.0,30.33,WNW,300,0.0,3.0,89,0.00,,---,0.02,VWS V13.00,2013-02-28 20:50:00,
2013-02-28 12:55:00,41.3,38.3,30.33,WNW,300,0.0,3.0,89,0.00,,---,0.02,VWS V13.00,2013-02-28 20:55:00,
2013-02-28 13:00:00,41.7,38.4,30.33,WNW,300,0.0,0.0,88,0.00,,---,0.02,VWS V13.00,2013-02-28 21:00:00,
2013-02-28 13:05:00,42.0,38.4,30.33,WNW,300,0.0,0.0,87,0.00,,---,0.02,VWS V13.00,2013-02-28 21:05:00,
2013-02-28 13:10:00,42.3,38.7,30.33,SSW,212,0.0,3.0,87,0.00,,---,0.02,VWS V13.00,2013-02-28 21:10:00,
2013-02-28 13:15:00,42.5,38.6,30.33,SW,221,2.0,3.0,86,0.00,,---,0.02,VWS V13.00,2013-02-28 21:15:00,
2013-02-28 13:20:00,42.6,38.4,30.33,South,183,2.0,4.0,85,0.00,,---,0.02,VWS V13.00,2013-02-28 21:20:00,
2013-02-28 13:25:00,42.6,38.4,30.33,South,183,1.0,4.0,85,0.00,,---,0.02,VWS V13.00,2013-02-28 21:25:00,
2013-02-28 13:30:00,42.7,38.2,30.33,South,183,0.0,1.0,84,0.00,,---,0.02,VWS V13.00,2013-02-28 21:30:00,
2013-02-28 13:35:00,42.7,38.2,30.33,South,183,0.0,2.0,84,0.00,,---,0.02,VWS V13.00,2013-02-28 21:35:00,
2013-02-28 13:40:00,42.8,38.6,30.33,South,183,1.0,2.0,85,0.00,,---,0.02,VWS V13.00,2013-02-28 21:40:00,
2013-02-28 13:45:00,42.9,38.7,30.33,South,183,0.0,3.0,85,0.00,,---,0.02,VWS V13.00,2013-02-28 21:45:00,
2013-02-28 13:50:00,42.9,38.7,30.33,South,183,0.0,3.0,85,0.00,,---,0.02,VWS V13.00,2013-02-28 21:50:00,
2013-02-28 13:55:00,42.9,39.0,30.33,South,183,0.0,3.0,86,0.01,,---,0.03,VWS V13.00,2013-02-28 21:55:00,
2013-02-28 14:00:00,42.9,39.0,30.33,South,183,0.0,0.0,86,0.01,,---,0.03,VWS V13.00,2013-02-28 22:00:00,
2013-02-28 14:05:00,42.8,38.6,30.33,South,183,0.0,0.0,85,0.01,,---,0.03,VWS V13.00,2013-02-28 22:05:00,
2013-02-28 14:10:00,42.8,38.9,30.33,South,183,0.0,0.0,86,0.01,,---,0.03,VWS V13.00,2013-02-28 22:10:00,
2013-02-28 14:15:00,42.9,39.3,30.33,South,183,1.0,2.0,87,0.01,,---,0.03,VWS V13.00,2013-02-28 22:15:00,
2013-02-28 14:20:00,42.8,39.2,30.33,South,183,0.0,2.0,87,0.01,,---,0.03,VWS V13.00,2013-02-28 22:20:00,
2013-02-28 14:25:00,42.8,39.2,30.33,South,183,0.0,2.0,87,0.01,,---,0.03,VWS V13.00,2013-02-28 22:25:00,
2013-02-28 14:30:00,42.8,39.2,30.33,South,183,0.0,0.0,87,0.01,,---,0.03,VWS V13.00,2013-02-28 22:30:00,
2013-02-28 14:35:00,42.8,39.2,30.33,South,183,0.0,1.0,87,0.01,,---,0.03,VWS V13.00,2013-02-28 22:35:00,
2013-02-28 14:40:00,42.7,39.4,30.34,South,183,0.0,1.0,88,0.02,,---,0.04,VWS V13.00,2013-02-28 22:40:00,
2013-02-28 14:45:00,42.7,39.4,30.34,South,183,0.0,1.0,88,0.02,,---,0.04,VWS V13.00,2013-02-28 22:45:00,
2013-02-28 14:50:00,42.5,39.2,30.34,South,183,0.0,1.0,88,0.02,,---,0.04,VWS V13.00,2013-02-28 22:50:00,
2013-02-28 14:55:00,42.5,39.2,30.33,South,183,0.0,1.0,88,0.02,,---,0.04,VWS V13.00,2013-02-28 22:55:00,
2013-02-28 15:00:00,42.4,39.1,30.34,South,183,0.0,0.0,88,0.02,,---,0.04,VWS V13.00,2013-02-28 23:00:00,
2013-02-28 15:05:00,42.3,39.0,30.34,South,183,0.0,2.0,88,0.02,,---,0.05,VWS V13.00,2013-02-28 23:05:00,
2013-02-28 15:10:00,42.1,38.8,30.34,South,183,2.0,3.0,88,0.02,,---,0.05,VWS V13.00,2013-02-28 23:10:00,
2013-02-28 15:15:00,42.0,38.7,30.34,South,183,0.0,3.0,88,0.02,,---,0.05,VWS V13.00,2013-02-28 23:15:00,
2013-02-28 15:20:00,41.9,38.9,30.34,South,183,0.0,3.0,89,0.03,,---,0.06,VWS V13.00,2013-02-28 23:20:00,
2013-02-28 15:25:00,41.8,38.8,30.34,South,183,0.0,3.0,89,0.03,,---,0.06,VWS V13.00,2013-02-28 23:25:00,
2013-02-28 15:30:00,41.7,38.7,30.34,South,183,0.0,1.0,89,0.03,,---,0.07,VWS V13.00,2013-02-28 23:30:00,
2013-02-28 15:35:00,41.6,38.6,30.34,South,183,0.0,1.0,89,0.04,,---,0.07,VWS V13.00,2013-02-28 23:35:00,
2013-02-28 15:40:00,41.4,38.7,30.34,South,183,0.0,1.0,90,0.04,,---,0.07,VWS V13.00,2013-02-28 23:40:00,
2013-02-28 15:45:00,41.4,38.7,30.34,South,181,1.0,2.0,90,0.05,,---,0.08,VWS V13.00,2013-02-28 23:45:00,
2013-02-28 15:50:00,41.2,38.5,30.34,ENE,78,2.0,3.0,90,0.05,,---,0.08,VWS V13.00,2013-02-28 23:50:00,
2013-02-28 15:55:00,41.0,38.3,30.34,ENE,78,1.0,3.0,90,0.05,,---,0.08,VWS V13.00,2013-02-28 23:55:00,
2013-02-28 16:00:00,40.9,38.5,30.34,ESE,112,3.0,4.0,91,0.06,,---,0.09,VWS V13.00,2013-03-01 00:00:00,
2013-02-28 16:05:00,40.8,38.4,30.35,ESE,111,0.0,4.0,91,0.05,,---,0.09,VWS V13.00,2013-03-01 00:05:00,
2013-02-28 16:10:00,40.7,38.3,30.34,ESE,110,2.0,4.0,91,0.05,,---,0.09,VWS V13.00,2013-03-01 00:10:00,
2013-02-28 16:15:00,40.6,38.2,30.34,ESE,111,1.0,4.0,91,0.05,,---,0.09,VWS V13.00,2013-03-01 00:15:00,
2013-02-28 16:20:00,40.5,38.1,30.35,ESE,111,2.0,4.0,91,0.05,,---,0.09,VWS V13.00,2013-03-01 00:20:00,
2013-02-28 16:25:00,40.4,38.0,30.35,ESE,111,0.0,4.0,91,0.05,,---,0.09,VWS V13.00,2013-03-01 00:25:00,
2013-02-28 16:30:00,40.3,37.9,30.35,East,90,2.0,2.0,91,0.05,,---,0.09,VWS V13.00,2013-03-01 00:30:00,
2013-02-28 16:35:00,40.2,37.8,30.35,East,90,1.0,3.0,91,0.03,,---,0.09,VWS V13.00,2013-03-01 00:35:00,
2013-02-28 16:40:00,40.1,37.7,30.36,ESE,117,1.0,4.0,91,0.03,,---,0.09,VWS V13.00,2013-03-01 00:40:00,
2013-02-28 16:45:00,40.0,37.6,30.36,ESE,111,2.0,5.0,91,0.04,,---,0.10,VWS V13.00,2013-03-01 00:45:00,
2013-02-28 16:50:00,39.9,37.8,30.36,ESE,113,1.0,5.0,92,0.04,,---,0.10,VWS V13.00,2013-03-01 00:50:00,
2013-02-28 16:55:00,39.8,37.7,30.36,ESE,113,1.0,5.0,92,0.04,,---,0.10,VWS V13.00,2013-03-01 00:55:00,
2013-02-28 17:00:00,39.7,37.6,30.36,ESE,113,0.0,2.0,92,0.01,,---,0.10,VWS V13.00,2013-03-01 01:00:00,
2013-02-28 17:05:00,39.6,37.5,30.36,ESE,121,3.0,4.0,92,0.01,,---,0.10,VWS V13.00,2013-03-01 01:05:00,
2013-02-28 17:10:00,39.5,37.4,30.36,ESE,120,3.0,4.0,92,0.02,,---,0.11,VWS V13.00,2013-03-01 01:10:00,
2013-02-28 17:15:00,39.5,37.4,30.36,ESE,119,0.0,4.0,92,0.02,,---,0.11,VWS V13.00,2013-03-01 01:15:00,
2013-02-28 17:20:00,39.4,37.3,30.36,ESE,119,1.0,4.0,92,0.02,,---,0.11,VWS V13.00,2013-03-01 01:20:00,
2013-02-28 17:25:00,39.4,37.3,30.36,ESE,119,0.0,4.0,92,0.02,,---,0.11,VWS V13.00,2013-03-01 01:25:00,
2013-02-28 17:30:00,39.3,37.2,30.36,ESE,119,0.0,0.0,92,0.02,,---,0.11,VWS V13.00,2013-03-01 01:30:00,
2013-02-28 17:35:00,39.3,37.2,30.36,ESE,120,0.0,2.0,92,0.02,,---,0.11,VWS V13.00,2013-03-01 01:35:00,
2013-02-28 17:40:00,39.2,37.1,30.36,ESE,120,0.0,2.0,92,0.02,,---,0.11,VWS V13.00,2013-03-01 01:40:00,
2013-02-28 17:45:00,39.1,37.0,30.36,ESE,119,0.0,2.0,92,0.02,,---,0.11,VWS V13.00,2013-03-01 01:45:00,
2013-02-28 17:50:00,39.1,37.0,30.36,ESE,120,0.0,2.0,92,0.02,,---,0.11,VWS V13.00,2013-03-01 01:50:00,
2013-02-28 17:55:00,39.0,36.9,30.36,ESE,120,0.0,2.0,92,0.02,,---,0.11,VWS V13.00,2013-03-01 01:55:00,
2013-02-28 18:00:00,39.0,36.9,30.36,ESE,120,0.0,0.0,92,0.01,,---,0.11,VWS V13.00,2013-03-01 02:00:00,
2013-02-28 18:05:00,38.9,36.8,30.36,ESE,120,0.0,0.0,92,0.01,,---,0.11,VWS V13.00,2013-03-01 02:05:00,
2013-02-28 18:10:00,38.9,36.8,30.36,ESE,120,0.0,1.0,92,0.01,,---,0.11,VWS V13.00,2013-03-01 02:10:00,
2013-02-28 18:15:00,38.9,36.8,30.36,ESE,119,0.0,1.0,92,0.01,,---,0.11,VWS V13.00,2013-03-01 02:15:00,
2013-02-28 18:20:00,38.8,36.7,30.36,ESE,119,0.0,1.0,92,0.02,,---,0.12,VWS V13.00,2013-03-01 02:20:00,
2013-02-28 18:25:00,38.8,36.7,30.36,ESE,120,0.0,1.0,92,0.02,,---,0.12,VWS V13.00,2013-03-01 02:25:00,
2013-02-28 18:30:00,38.7,36.8,30.35,ESE,120,0.0,0.0,93,0.02,,---,0.12,VWS V13.00,2013-03-01 02:30:00,
2013-02-28 18:35:00,38.7,36.8,30.35,ESE,120,0.0,0.0,93,0.01,,---,0.12,VWS V13.00,2013-03-01 02:35:00,
2013-02-28 18:40:00,38.6,36.8,30.35,ESE,119,0.0,1.0,93,0.01,,---,0.12,VWS V13.00,2013-03-01 02:40:00,
2013-02-28 18:45:00,38.5,36.4,30.35,ESE,119,0.0,2.0,92,0.01,,---,0.12,VWS V13.00,2013-03-01 02:45:00,
2013-02-28 18:50:00,38.4,36.6,30.35,ESE,120,0.0,2.0,93,0.01,,---,0.12,VWS V13.00,2013-03-01 02:50:00,
2013-02-28 18:55:00,38.3,36.5,30.36,ESE,120,0.0,2.0,93,0.01,,---,0.12,VWS V13.00,2013-03-01 02:55:00,
2013-02-28 19:00:00,38.3,36.5,30.36,ESE,119,0.0,0.0,93,0.01,,---,0.12,VWS V13.00,2013-03-01 03:00:00,
2013-02-28 19:05:00,38.3,36.5,30.36,ESE,119,0.0,0.0,93,0.01,,---,0.12,VWS V13.00,2013-03-01 03:05:00,
2013-02-28 19:10:00,38.3,36.5,30.36,ESE,119,0.0,0.0,93,0.01,,---,0.12,VWS V13.00,2013-03-01 03:10:00,
2013-02-28 19:15:00,38.2,36.4,30.36,ESE,119,0.0,0.0,93,0.01,,---,0.12,VWS V13.00,2013-03-01 03:15:00,
2013-02-28 19:20:00,38.2,36.4,30.36,ESE,120,0.0,0.0,93,0.01,,---,0.12,VWS V13.00,2013-03-01 03:20:00,
2013-02-28 19:25:00,38.2,36.4,30.36,ESE,120,0.0,0.0,93,0.01,,---,0.12,VWS V13.00,2013-03-01 03:25:00,
2013-02-28 19:30:00,38.2,36.4,30.36,ESE,120,0.0,0.0,93,0.01,,---,0.12,VWS V13.00,2013-03-01 03:30:00,
2013-02-28 19:35:00,38.1,36.3,30.36,ESE,119,0.0,0.0,93,0.00,,---,0.12,VWS V13.00,2013-03-01 03:35:00,
2013-02-28 19:40:00,38.1,36.3,30.36,ESE,120,0.0,0.0,93,0.00,,---,0.12,VWS V13.00,2013-03-01 03:40:00,
2013-02-28 19:45:00,38.1,36.3,30.37,ESE,120,0.0,0.0,93,0.00,,---,0.12,VWS V13.00,2013-03-01 03:45:00,
2013-02-28 19:50:00,38.1,36.3,30.37,ESE,120,0.0,0.0,93,0.00,,---,0.12,VWS V13.00,2013-03-01 03:50:00,
2013-02-28 19:55:00,38.1,36.3,30.36,ESE,120,0.0,0.0,93,0.00,,---,0.12,VWS V13.00,2013-03-01 03:55:00,
2013-02-28 20:00:00,38.1,36.3,30.36,ESE,120,0.0,0.0,93,0.00,,---,0.12,VWS V13.00,2013-03-01 04:00:00,
2013-02-28 20:05:00,38.1,36.3,30.37,ESE,120,0.0,1.0,93,0.00,,---,0.12,VWS V13.00,2013-03-01 04:05:00,
2013-02-28 20:10:00,38.1,36.3,30.37,ESE,119,0.0,1.0,93,0.00,,---,0.12,VWS V13.00,2013-03-01 04:10:00,
2013-02-28 20:15:00,38.2,36.4,30.37,ESE,120,0.0,1.0,93,0.00,,---,0.12,VWS V13.00,2013-03-01 04:15:00,
2013-02-28 20:20:00,38.2,36.4,30.37,ESE,119,0.0,1.0,93,0.00,,---,0.12,VWS V13.00,2013-03-01 04:20:00,
2013-02-28 20:25:00,38.1,36.3,30.38,ESE,119,0.0,1.0,93,0.00,,---,0.12,VWS V13.00,2013-03-01 04:25:00,
2013-02-28 20:30:00,38.2,36.4,30.38,ESE,120,0.0,0.0,93,0.00,,---,0.12,VWS V13.00,2013-03-01 04:30:00,
2013-02-28 20:35:00,38.2,36.4,30.38,ESE,120,2.0,3.0,93,0.00,,---,0.12,VWS V13.00,2013-03-01 04:35:00,
2013-02-28 20:40:00,38.2,36.4,30.38,ESE,119,0.0,4.0,93,0.00,,---,0.12,VWS V13.00,2013-03-01 04:40:00,
2013-02-28 20:45:00,38.2,36.4,30.38,ESE,119,1.0,4.0,93,0.00,,---,0.12,VWS V13.00,2013-03-01 04:45:00,
2013-02-28 20:50:00,38.2,36.4,30.39,ESE,120,0.0,4.0,93,0.00,,---,0.12,VWS V13.00,2013-03-01 04:50:00,
2013-02-28 20:55:00,38.2,36.4,30.38,ESE,120,0.0,4.0,93,0.00,,---,0.12,VWS V13.00,2013-03-01 04:55:00,
2013-02-28 21:00:00,38.1,36.3,30.37,ESE,120,0.0,0.0,93,0.00,,---,0.12,VWS V13.00,2013-03-01 05:00:00,
2013-02-28 21:05:00,38.1,36.3,30.37,ESE,119,0.0,0.0,93,0.00,,---,0.12,VWS V13.00,2013-03-01 05:05:00,
2013-02-28 21:06:00,38.1,36.3,30.37,ESE,120,0.0,0.0,93,0.00,,---,0.12,VWS V13.00,2013-03-01 05:06:00,
2013-02-28 21:11:00,38.1,36.3,30.37,ESE,119,0.0,0.0,93,0.00,,---,0.12,VWS V13.00,2013-03-01 05:11:00,
2013-02-28 21:16:00,38.1,36.3,30.37,ESE,119,0.0,0.0,93,0.00,,---,0.12,VWS V13.00,2013-03-01 05:16:00,
2013-02-28 21:21:00,38.1,36.3,30.37,ESE,119,0.0,0.0,93,0.01,,---,0.13,VWS V13.00,2013-03-01 05:21:00,
2013-02-28 21:26:00,38.1,36.3,30.37,ESE,119,0.0,1.0,93,0.01,,---,0.13,VWS V13.00,2013-03-01 05:26:00,
2013-02-28 21:31:00,38.1,36.3,30.37,ESE,120,0.0,0.0,93,0.01,,---,0.13,VWS V13.00,2013-03-01 05:31:00,
2013-02-28 21:36:00,38.0,36.2,30.37,ESE,120,0.0,1.0,93,0.01,,---,0.13,VWS V13.00,2013-03-01 05:36:00,
2013-02-28 21:41:00,38.0,36.4,30.37,ESE,120,0.0,1.0,94,0.01,,---,0.13,VWS V13.00,2013-03-01 05:41:00,
2013-02-28 21:46:00,38.0,36.4,30.38,ESE,120,0.0,1.0,94,0.01,,---,0.13,VWS V13.00,2013-03-01 05:46:00,
2013-02-28 21:51:00,38.0,36.4,30.38,ESE,120,0.0,1.0,94,0.01,,---,0.13,VWS V13.00,2013-03-01 05:51:00,
2013-02-28 21:56:00,38.0,36.4,30.38,ESE,119,0.0,1.0,94,0.01,,---,0.13,VWS V13.00,2013-03-01 05:56:00,
2013-02-28 22:01:00,38.0,36.4,30.36,ESE,120,0.0,0.0,94,0.01,,---,0.13,VWS V13.00,2013-03-01 06:01:00,
2013-02-28 22:06:00,38.0,36.4,30.36,ESE,120,0.0,0.0,94,0.01,,---,0.13,VWS V13.00,2013-03-01 06:06:00,
2013-02-28 22:11:00,38.0,36.4,30.36,ESE,120,0.0,0.0,94,0.01,,---,0.13,VWS V13.00,2013-03-01 06:11:00,
2013-02-28 22:16:00,38.0,36.4,30.36,ESE,120,0.0,0.0,94,0.01,,---,0.13,VWS V13.00,2013-03-01 06:16:00,
2013-02-28 22:21:00,38.0,36.4,30.36,ESE,120,0.0,0.0,94,0.01,,---,0.13,VWS V13.00,2013-03-01 06:21:00,
2013-02-28 22:26:00,38.0,36.4,30.36,ESE,120,0.0,0.0,94,0.01,,---,0.13,VWS V13.00,2013-03-01 06:26:00,
2013-02-28 22:31:00,38.0,36.4,30.36,ESE,120,0.0,0.0,94,0.00,,---,0.13,VWS V13.00,2013-03-01 06:31:00,
2013-02-28 22:36:00,38.0,36.4,30.36,ESE,119,0.0,0.0,94,0.00,,---,0.13,VWS V13.00,2013-03-01 06:36:00,
2013-02-28 22:41:00,38.0,36.4,30.36,ESE,119,0.0,0.0,94,0.00,,---,0.13,VWS V13.00,2013-03-01 06:41:00,
2013-02-28 22:46:00,38.1,36.5,30.36,ESE,120,0.0,0.0,94,0.00,,---,0.13,VWS V13.00,2013-03-01 06:46:00,
2013-02-28 22:51:00,38.1,36.5,30.37,ESE,120,0.0,0.0,94,0.00,,---,0.13,VWS V13.00,2013-03-01 06:51:00,
2013-02-28 22:56:00,38.1,36.5,30.37,ESE,119,0.0,0.0,94,0.00,,---,0.13,VWS V13.00,2013-03-01 06:56:00,
2013-02-28 23:01:00,38.1,36.5,30.36,ESE,119,0.0,0.0,94,0.00,,---,0.13,VWS V13.00,2013-03-01 07:01:00,
2013-02-28 23:06:00,38.1,36.5,30.36,ESE,120,0.0,0.0,94,0.00,,---,0.13,VWS V13.00,2013-03-01 07:06:00,
2013-02-28 23:11:00,38.1,36.5,30.36,ESE,119,0.0,0.0,94,0.00,,---,0.13,VWS V13.00,2013-03-01 07:11:00,
2013-02-28 23:16:00,38.1,36.5,30.36,ESE,119,0.0,0.0,94,0.00,,---,0.13,VWS V13.00,2013-03-01 07:16:00,
2013-02-28 23:21:00,38.1,36.5,30.36,ESE,119,0.0,0.0,94,0.00,,---,0.13,VWS V13.00,2013-03-01 07:21:00,
2013-02-28 23:26:00,38.1,36.5,30.36,ESE,120,0.0,1.0,94,0.00,,---,0.13,VWS V13.00,2013-03-01 07:26:00,
2013-02-28 23:31:00,38.1,36.5,30.36,ESE,120,0.0,0.0,94,0.00,,---,0.13,VWS V13.00,2013-03-01 07:31:00,
2013-02-28 23:36:00,38.1,36.5,30.36,ESE,119,0.0,1.0,94,0.00,,---,0.13,VWS V13.00,2013-03-01 07:36:00,
2013-02-28 23:41:00,38.1,36.5,30.36,ESE,120,0.0,1.0,94,0.00,,---,0.13,VWS V13.00,2013-03-01 07:41:00,
2013-02-28 23:46:00,38.0,36.4,30.36,ESE,120,0.0,1.0,94,0.00,,---,0.13,VWS V13.00,2013-03-01 07:46:00,
2013-02-28 23:51:00,38.0,36.4,30.36,SSW,192,3.0,3.0,94,0.00,,---,0.13,VWS V13.00,2013-03-01 07:51:00,
2013-02-28 23:56:00,38.0,36.4,30.37,SW,235,3.0,4.0,94,0.00,,---,0.13,VWS V13.00,2013-03-01 07:56:00,